Location: Unspecified
(43.4354°N, 0.0000°E)
Time: 09:37:38
(UTC+00:00)

Transit 2A - Pass Details

Date: 19 June 2019
Orbit: 594 x 965 km, 66.7° (Epoch: 17 July)

Event Time Altitude Azimuth Distance (km) Brightness Sun altitude
Rises 23:48:15 0° 180° (S) 3,593 - -23.1°
Reaches altitude 10° 23:50:59 10° 172° (S) 2,676 - -23.1°
Exits shadow 23:55:36 32° 128° (SE) 1,583 7.3 -23.1°
Maximum altitude 23:56:34 34° 110° (ESE) 1,536 7.3 -23.1°
Drops below altitude 10° 00:02:10 10° 48° (NE) 2,683 9.3 -23.1°
Sets 00:04:54 0° 39° (NE) 3,605 10.3 -23.1°
